Tracking 18852 objects as of 23-Nov-2017
HD Live streaming from Space Station
objects crossing your sky now

SMS 1

Track SMS 1 now!
SMS 1 is classified as:


NORAD ID: 7298
Int'l Code: 1974-033A
Perigee: 36,174.3 km
Apogee: 36,355.4 km
Inclination: 11.7 °
Period: 1,460.2 minutes
Semi major axis: 42635 km
RCS: 3.1533 m2 (large)
Launch date: May 17, 1974
Source: United States (US)
Launch site: AIR FORCE EASTERN TEST RANGE (AFETR)
aabbcc
Your satellite tracking list
Your tracking list is empty




NASA's NSSDC Master Catalog

Two Line Element Set (TLE):
1 07298U 74033A   17326.63942878 -.00000237  00000-0  00000+0 0  9991
2 07298  11.7340 304.1888 0021239 336.0165 156.0256  0.98614491 89012
Source of the keplerian elements: AFSPC